SL-12 R/B(2), 13610

Orbit data source: Space-Track

SL-12 R/B(2), 13610 is space debris in MEO originally from a launch on Tue, 12 Oct 1982 UTC launched from the Tyuratam Missile And Space Complex (TTMTR). Debris objects in space refer to the collection of defunct objects orbiting the Earth. Examples of debris include non-operational satellites, rocket bodies, and fragments generated from explosions, collisions, or faulty payload assembly.

Loading next visibility...
Identifier
13610, 1982-100H
Orbit
MEO
Country
Flag of CISCIS
Related business
Manufacturer
NPO Energiya
Mission
Spacecraft
Bus & Motor
BLOK DM, Unknown motor
Mass
2,440 kg wet, 2,440 kg dry
Launch date (UTC)
1982-10-12 (44 years ago)
Launch vehicle
Unknown
Launch site
Tyuratam Missile And Space Complex (TTMTR)
Object type
Payload
Rocket body
Debris
Shape & HBR
Unknown
Radar Cross Section
Large (>1 m²)

Expand to show TLE details & history
Last TLE update: 5 hours ago

TLE from 5 hours ago
0 SL-12 R/B(2)
1 13610U 82100H   26168.16485887 -.00000028  00000-0  00000+0 0  9992
2 13610  64.8846  65.7296 0006915 211.5971 338.2827  2.14005503341787
Epoch: 2026-06-17T03:57Z
TLE epoch observation values (Epoch: 2026-06-17T03:57:23.806Z)
Latitude
-8.94012°
Longitude
-74.81198°
Altitude
19,043.899 km
Speed
3.961 km/s
True Right ascension
16h 39m 51s
True Declination
-8° 55' 31"
Sunlit
Object was in daylight at epoch
Visualization orbit readout
Latitude
Unknown
Longitude
Unknown
Altitude
Unknown
Speed
Unknown
Apparent Right ascension
Unknown
Apparent Declination
Unknown
Sunlit
N/A
Visualization observer readout
Local Sidereal Time
19:54:43
Azimuth
Unknown
Elevation
Unknown
Doppler factor
Unknown
Orbital elements
Apogee altitude
19,075.249 km
Perigee altitude
19,040.071 km
Semi-major axis
25,435.797 km
Eccentricity
0.00069
Inclination
64.8846°
RAAN
65.7296°
Arg. of periapsis
211.5971°
True anomaly
338.25336°
Mean anomaly
338.2827°
Eccentric anomaly
338.26803°
Mean motion
0.53503 °/min
Orbital period
672.86 mins
BSTAR
0
Loading maneuver chart data...
Computing Atmospheric mass density...
Loading historical data...
Loading historical data...
Loading historical data...
Loading historical data...
Loading historical data...
Loading historical data...
Loading historical data...

Documentation

Showing up to 5 results
|